User: anonymous   Login
Location: Enborne
(51.3833°N, 1.3667°W)
Time: 03:12:20
(UTC+00:00)
Language:

SJ-6B - Orbit

View from above orbital plane
View from above orbital plane
View from above satellite
View from above satellite

Ground track
Ground track

The orbit data is extracted from the following two-line orbital elements,

1 28415U 04035C   20338.16555269  .00000171  00000-0  15339-4 0  9991
2 28415  97.5929  17.7033 0052577 135.9312 224.6124 15.06967178889044
Epoch (UTC): 03 December 2020 03:58:23
Eccentricity: 0.0052577
inclination: 97.5929°
perigee height: 509 km
apogee height: 582 km
right ascension of ascending node: 17.7033°
argument of perigee: 135.9312°
revolutions per day: 15.06967178
mean anomaly at epoch: 224.6124°
orbit number at epoch: 88904

The dashed part of the orbit path shows where the satellite is in the earth's shadow,  

DLR